Regional Weather Roundup
Issued by NWS Northern Indiana

Home | Current Version | Previous Version | Text Only | Print | Product List | Glossary Off
Versions: 1 2 3 4 5 6 7 8 9 10 11 12 13 14 15 16 17 18 19 20 21 22 23 24 25 26 27 28 29 30 31 32 33 34 35 36 37 38 39 40 41 42 43 44 45 46 47 48 49 50

000
ASUS43 KIWX 010000
RWRIWX

KIWX WEATHER ROUNDUP
NATIONAL WEATHER SERVICE NORTHERN INDIANA
800 PM EDT WED AUG 31 2016

NOTE: "FAIR" INDICATES FEW OR NO CLOUDS BELOW 12,000 FEET WITH NO
SIGNIFICANT WEATHER AND/OR OBSTRUCTIONS TO VISIBILITY.

* THESE STATIONS ARE NOT UNDER NWS QUALITY CONTROL. THEY ALSO MAY NOT
  REPORT WEATHER SUCH AS PRECIPITATION OR FOG.

INZ001>027-010100-
NORTHERN INDIANA

CITY           SKY/WX    TMP DP  RH WIND       PRES   REMARKS
GARY*          PTCLDY    72  61  68 N13       30.07S
KNOX*          CLOUDY    68  41  37 N8        30.03S
SOUTH BEND     CLOUDY    69  62  78 N13       30.04R
6HR MIN TEMP:  69; 6HR MAX TEMP:  79;

ELKHART*       CLEAR    N/A N/A N/A N9        30.02R
GOSHEN         PTCLDY    72  62  71 NW12      30.01R
6HR MIN TEMP:  72; 6HR MAX TEMP:  83; 6HR PCP:  0.03;

MONTICELLO*    PTCLDY    71  56  59 N8        30.02R
6HR MIN TEMP:  71; 6HR MAX TEMP:  83;

ANGOLA*        CLEAR     72  63  73 N5        30.01R
FORT WAYNE     CLOUDY    74  68  81 N5        29.99R
6HR MIN TEMP:  74; 6HR MAX TEMP:  85;

PERU/GRISSOM   MOCLDY    71  60  68 N7        30.01R
6HR MIN TEMP:  71; 6HR MAX TEMP:  84; 6HR PCP:  0.15;


$$
INZ028>050-010100-
CENTRAL INDIANA

CITY           SKY/WX    TMP DP  RH WIND       PRES   REMARKS
LAFAYETTE      MOCLDY    71  63  75 N7        30.01S
6HR MIN TEMP:  71; 6HR MAX TEMP:  83;

KOKOMO*        CLOUDY    72  63  73 N12       30.01R
6HR MIN TEMP:  72; 6HR MAX TEMP:  84; 6HR PCP:  0.10;

MUNCIE*        CLOUDY    74  71  91 N7        29.98S
6HR MIN TEMP:  74; 6HR MAX TEMP:  83; 6HR PCP:  0.03;

INDIANAPOLIS   CLOUDY    78  68  71 N14       29.98R
6HR MIN TEMP:  78; 6HR MAX TEMP:  86;


$$
MIZ043>046-050>051-056>058-064>065-071>073-077>080-010100-
SOUTHWEST LOWER MICHIGAN

CITY           SKY/WX    TMP DP  RH WIND       PRES   REMARKS
BATTLE CREEK   PTCLDY    70  59  68 N7        30.03S
6HR MIN TEMP:  70; 6HR MAX TEMP:  76;

BENTON HARBOR  CLEAR     72  60  66 N8        30.03S
6HR MIN TEMP:  72; 6HR MAX TEMP:  75;

COLDWATER*     CLOUDY    70  60  70 N5        30.01S
6HR MIN TEMP:  70; 6HR MAX TEMP:  79;

HILLSDALE*     CLEAR     70  60  71 N3        30.01S
6HR MIN TEMP:  51; 6HR MAX TEMP:  84;

HOLLAND        CLEAR     73  54  51 N6        30.05R
6HR MIN TEMP:  73; 6HR MAX TEMP:  79;

GRAND RAPIDS   PTCLDY    71  56  58 N7        30.04R
6HR MIN TEMP:  71; 6HR MAX TEMP:  78;

KALAMAZOO      CLEAR     72  55  55 N6        30.03R
6HR MIN TEMP:  72; 6HR MAX TEMP:  80;

STURGIS*       PTCLDY    70  61  73 N3        30.01R
6HR MIN TEMP:  70; 6HR MAX TEMP:  81; 6HR PCP:  0.01;

THREE RIVERS*  FAIR      73  59  62 N3        30.02R
6HR MIN TEMP:  73; 6HR MAX TEMP:  82;


$$
OHZ001>008-015>018-024>025-010100-
NORTHWEST OHIO

CITY           SKY/WX    TMP DP  RH WIND       PRES   REMARKS
DEFIANCE       CLOUDY    75  63  66 N12       29.98R
6HR MIN TEMP:  75; 6HR MAX TEMP:  84; 6HR PCP: TRACE;

FINDLAY        MOCLDY    77  65  66 NE13      29.96R
6HR MIN TEMP:  77; 6HR MAX TEMP:  85;

TOLEDO EXPRESS PTCLDY    72  62  71 N6        29.98R
6HR MIN TEMP:  72; 6HR MAX TEMP:  82;

TOLEDO METCALF CLOUDY    76  64  66 N7        29.98R
6HR MIN TEMP:  76; 6HR MAX TEMP:  85;

LIMA           CLOUDY    73  71  93 N9        29.96R
6HR MIN TEMP:  73; 6HR MAX TEMP:  81; 6HR PCP:  0.04;


$$
AND FOR LAKE MICHIGAN COASTAL AND OPEN LAKE BUOY OBSERVATIONS

STATION/POSITION TEMP    WIND        PRES    VSBY  WAVE
                 AIR SEA DIR/SP/G                  HT/PER
                 (F)     (DEG/KT/KT) (MB)    (MI)  (FT/S)
CALUMET HARBOR                       1017.7
MICHIGAN CITY     70     340/ 21/ 22   N/A
BURNS HARBOR      71     360/ 19/ 24 1017.9S
SAINT JOSEPH      70      10/ 15/ 21 1017.9
SOUTH LAKE BUOY   71 74   10/ 21/ 27 1017.1          6/ 6
4 MI NW BRIDGMAN  69 62  350/ 16/ 21 1016.7F         6/ 6
MICHIGAN CITY     71 65  360/ 17/ 23   N/A           7/ 6

$$
&&




USA.gov is the U.S. government's official web portal to all federal, state and local government web resources and services.